Location: PSU-Greenbush Astrophysical Observatory
(37.5140°N, 94.9880°W)
Time: 20:04:26
(UTC-06:00)

Transit 2A - Pass Details

Date: 31 January 2020
Orbit: 599 x 959 km, 66.7° (Epoch: 25 February)

Event Time Altitude Azimuth Distance (km) Brightness Sun altitude
Rises 03:51:24 0° 332° (NNW) 3,040 - -42.4°
Reaches altitude 10° 03:53:38 10° 333° (NNW) 2,170 - -41.9°
Maximum altitude 03:58:35 86° 63° (ENE) 761 - -41.0°
Drops below altitude 10° 04:04:05 10° 152° (SSE) 2,397 - -39.9°
Exits shadow 04:05:51 - 152° (SSE) 3,076 9.3 -39.6°
Sets 04:06:38 0° 153° (SSE) 3,384 9.5 -39.4°
